Date,TemperatureHighF,TemperatureAvgF,TemperatureLowF,DewpointHighF,DewpointAvgF,DewpointLowF,HumidityHigh,HumidityAvg,HumidityLow,PressureMaxIn,PressureMinIn,WindSpeedMaxMPH,WindSpeedAvgMPH,GustSpeedMaxMPH,PrecipitationSumIn
2014-1-1,48.4,36.6,27.5,31.3,23.4,18.3,73,59,42,28.17,27.93,6,1,6,0.00
2014-1-2,44.2,33.2,16.2,43.7,29.5,7.8,98,86,69,28.02,27.70,7,2,7,0.00
2014-1-3,33.6,20.4,10.2,11.6,5.7,0.8,73,54,38,28.23,28.02,10,1,10,0.00
2014-1-4,43.5,30.6,19.2,31.6,14.5,3.5,89,52,40,28.17,27.99,10,2,10,0.13
2014-1-5,47.8,38.5,29.7,46.8,37.0,28.0,98,94,87,27.99,27.61,8,2,8,0.45
2014-1-6,29.5,11.3,1.4,28.0,1.7,-14.1,94,66,46,28.20,27.70,10,3,10,0.00
2014-1-7,25.9,9.7,-2.6,2.8,-7.6,-17.8,47,45,34,28.29,28.17,6,1,6,0.34
2014-1-8,44.6,28.0,12.9,17.1,7.1,-3.5,54,41,30,28.32,28.23,5,0,5,0.09
2014-1-9,47.8,37.6,28.9,38.3,19.1,7.5,95,49,33,28.29,28.17,8,1,8,0.00
2014-1-10,47.7,43.7,39.4,47.1,43.1,38.1,98,98,95,28.17,27.82,8,1,8,0.34
2014-1-11,61.5,50.6,39.6,54.1,41.9,28.9,98,76,36,27.85,27.61,10,2,10,1.87
2014-1-12,58.1,44.5,33.6,39.3,30.6,24.7,92,61,34,28.02,27.85,6,1,6,0.00
2014-1-13,46.8,43.4,40.3,42.8,35.8,26.6,98,77,48,27.99,27.73,8,2,8,0.46
2014-1-14,58.1,45.7,36.9,44.4,34.2,23.9,98,69,35,27.88,27.70,6,1,6,0.16
2014-1-15,47.1,34.2,21.2,34.1,20.3,8.9,86,58,31,27.90,27.82,6,1,6,0.00
2014-1-16,44.4,29.3,16.0,19.1,13.0,9.0,76,52,32,27.90,27.76,7,1,7,0.00
2014-1-17,41.0,31.8,22.5,23.6,14.5,5.3,67,49,40,27.90,27.73,8,2,8,0.00
2014-1-18,41.0,28.8,14.9,13.8,6.3,-13.6,64,42,10,27.99,27.79,8,2,8,0.00
2014-1-19,50.9,38.7,32.5,28.1,20.1,11.0,65,48,34,27.93,27.76,6,2,6,0.00
2014-1-20,62.8,46.1,34.7,30.9,23.0,18.6,52,41,26,27.90,27.76,6,2,6,0.00
2014-1-21,46.0,30.7,12.9,29.0,17.8,0.4,87,60,40,27.90,27.61,10,2,10,0.00
2014-1-22,32.5,18.4,6.4,3.5,-6.1,-20.4,57,39,12,27.99,27.85,4,1,5,0.00
2014-1-23,29.3,18.7,8.2,9.8,-2.5,-20.4,60,40,13,28.35,27.96,6,1,6,0.00
2014-1-24,30.6,14.4,0.1,1.7,-14.6,-24.7,54,27,12,28.38,27.99,6,1,6,0.00
2014-1-25,39.9,27.8,18.7,15.5,3.1,-18.0,51,35,17,27.99,27.67,8,2,8,0.00
2014-1-26,51.8,39.0,24.3,27.0,18.5,5.8,53,43,38,27.82,27.73,10,2,10,0.00
2014-1-27,46.6,35.1,15.4,27.5,7.3,-22.2,65,35,10,28.05,27.73,8,2,8,0.00
2014-1-28,19.8,14.1,6.8,7.4,0.0,-6.2,66,54,39,28.08,27.99,10,1,10,0.00
2014-1-29,33.1,14.6,2.5,4.6,-8.0,-20.2,66,44,12,28.20,28.05,8,1,8,0.00
2014-1-30,39.4,24.3,10.6,11.7,1.3,-9.6,42,36,27,28.14,27.96,7,2,7,0.00
2014-1-31,54.5,37.9,26.1,25.5,11.5,-3.7,47,34,16,28.05,27.96,7,1,7,0.00
2014-2-1,55.4,44.3,37.0,42.9,20.8,-11.8,93,46,10,28.02,27.93,6,1,6,0.00
2014-2-2,53.8,48.4,43.2,53.2,47.7,41.7,98,97,92,27.99,27.76,4,0,4,1.41
2014-2-3,45.0,38.7,32.2,44.2,36.1,31.7,98,91,76,28.05,27.73,8,1,8,1.20
2014-2-4,44.6,39.5,34.5,44.1,38.2,33.2,98,95,86,28.05,27.76,11,2,11,0.09
2014-2-5,47.3,35.1,22.8,46.8,31.9,17.2,98,88,72,28.11,27.73,10,2,10,0.37
2014-2-6,33.6,25.3,21.6,20.5,18.3,16.1,86,75,56,28.20,28.08,5,1,5,0.00
2014-2-7,43.7,29.8,19.4,25.9,20.0,16.7,90,69,47,28.23,28.08,4,0,4,0.00
2014-2-8,46.9,37.0,31.3,33.0,27.3,19.4,81,68,56,28.08,27.99,6,0,6,0.00
2014-2-9,47.3,39.5,33.6,36.7,33.6,30.2,88,80,60,28.02,27.90,6,1,6,0.00
2014-2-10,41.0,33.1,27.1,33.7,27.3,19.1,96,80,55,28.02,27.93,7,1,7,0.00
2014-2-11,41.4,31.8,26.1,21.8,16.5,12.1,72,54,40,28.08,27.99,6,1,6,0.00
2014-2-12,33.3,30.0,27.9,29.8,23.1,10.2,98,78,41,28.05,27.70,7,1,7,0.00
2014-2-13,47.3,35.6,28.4,31.3,25.6,19.8,98,70,39,27.73,27.61,6,1,6,0.25
2014-2-14,52.9,39.7,29.7,37.6,28.3,20.5,97,65,45,27.76,27.58,9,2,9,0.45
2014-2-15,42.4,30.5,21.4,38.0,19.7,14.1,98,67,40,27.96,27.58,8,2,8,0.05
2014-2-16,60.3,42.7,30.6,32.0,23.0,15.9,58,46,31,28.02,27.90,8,1,8,0.00
2014-2-17,58.5,46.4,33.3,52.3,34.4,24.0,98,66,38,28.05,27.88,9,2,9,0.16
2014-2-18,64.4,50.5,37.4,55.3,32.2,22.4,94,52,30,28.11,27.90,6,1,6,0.08
2014-2-19,69.8,60.6,55.8,57.3,52.4,44.1,97,77,42,27.96,27.85,11,2,11,0.05
2014-2-20,65.5,59.7,55.8,59.7,56.9,53.5,97,91,77,27.93,27.73,7,2,7,0.00
2014-2-21,58.5,49.0,40.3,30.5,14.0,-10.8,49,27,6,27.96,27.90,4,1,4,0.00
2014-2-22,67.1,51.3,38.7,25.4,6.1,-12.5,38,21,4,28.08,27.90,6,1,6,0.00
2014-2-23,70.9,56.1,41.7,31.4,16.7,-14.5,66,26,3,27.93,27.85,6,2,6,0.00
2014-2-24,59.4,43.8,30.7,32.5,10.7,-10.8,100,38,6,28.05,27.90,6,1,6,0.00
2014-2-25,63.0,45.1,34.5,28.1,14.9,-11.3,43,30,11,27.96,27.85,6,1,6,0.00
2014-2-26,44.2,31.7,20.5,19.2,8.1,-15.3,59,39,10,27.88,27.76,8,2,8,0.00
2014-2-27,50.4,31.9,17.1,6.6,-5.0,-16.7,45,25,8,27.88,27.79,6,2,6,0.00
2014-2-28,52.3,38.0,23.4,14.0,-0.7,-11.7,43,24,7,27.99,27.88,8,2,8,0.00
2014-3-1,51.1,44.8,39.0,35.7,27.3,13.8,63,50,31,28.11,27.99,6,1,6,0.00
2014-3-2,70.7,57.8,47.3,50.3,43.3,34.5,72,59,48,28.08,27.79,9,2,9,0.00
2014-3-3,61.2,34.2,22.5,51.2,30.3,18.9,96,87,52,28.05,27.70,9,2,9,0.50
2014-3-4,43.2,31.8,22.6,32.5,26.6,20.4,93,82,61,28.05,27.96,8,0,8,0.00
2014-3-5,62.6,43.6,30.4,37.6,30.0,21.4,92,63,35,28.02,27.93,6,1,6,0.00
2014-3-6,56.5,42.9,34.5,31.2,25.8,21.4,72,52,35,27.99,27.88,4,1,4,0.00
2014-3-7,68.2,50.9,40.6,36.1,29.0,24.3,57,44,29,27.90,27.82,6,1,6,0.00
2014-3-8,70.5,54.7,42.4,38.0,30.5,24.4,51,40,26,28.02,27.90,8,1,8,0.00
2014-3-9,71.1,53.4,41.0,39.3,35.0,26.6,89,54,24,28.08,27.99,6,1,6,0.00
2014-3-10,74.8,57.1,44.8,43.0,36.1,28.6,75,48,24,28.02,27.82,8,1,8,0.00
2014-3-11,77.4,61.3,46.9,48.2,42.7,30.3,83,53,32,27.82,27.64,6,1,6,0.00
2014-3-12,64.8,49.8,32.5,56.9,42.2,17.9,97,76,53,27.88,27.46,7,3,7,0.00
2014-3-13,55.8,38.1,25.9,20.4,9.2,-11.8,73,39,6,28.08,27.85,8,2,8,0.00
2014-3-14,66.6,48.3,36.3,28.8,18.5,-7.9,43,32,6,28.11,27.93,7,2,7,0.00
2014-3-15,70.3,55.8,45.1,42.0,33.9,27.6,52,44,33,28.02,27.90,4,1,4,0.00
2014-3-16,54.7,50.6,47.5,50.7,46.0,34.3,98,86,49,27.90,27.55,9,1,9,0.83
2014-3-17,49.8,42.1,37.0,49.3,41.2,36.5,98,97,93,27.73,27.55,4,0,4,0.25
2014-3-18,48.6,42.7,38.8,44.6,41.2,38.3,98,95,82,27.90,27.67,8,1,8,0.00
2014-3-19,52.5,46.0,42.3,51.4,44.7,41.7,98,95,85,27.96,27.88,7,1,7,0.00
2014-3-20,67.3,50.2,35.8,47.6,23.2,-12.5,97,48,4,28.02,27.93,7,1,7,0.00
2014-3-21,68.5,53.7,40.8,27.9,14.3,-11.6,40,25,4,28.02,27.90,6,1,6,0.00
2014-3-22,68.7,58.2,50.5,44.3,31.3,20.5,53,36,26,27.96,27.88,5,1,5,0.00
2014-3-23,59.2,46.3,35.6,41.1,32.7,19.7,96,63,35,28.08,27.88,7,2,7,0.37
2014-3-24,61.5,43.2,29.5,23.2,7.3,-11.7,62,33,5,28.08,27.88,9,1,9,0.00
2014-3-25,42.3,35.2,27.0,24.0,15.0,8.0,74,44,29,28.05,27.79,9,2,9,0.00
2014-3-26,56.7,35.9,21.0,13.3,-0.9,-14.6,58,28,6,28.17,28.02,6,1,6,0.00
2014-3-27,66.4,48.7,33.3,28.3,-3.2,-15.0,36,14,4,28.11,27.93,9,2,9,0.00
2014-3-28,58.3,53.0,48.4,55.4,50.8,28.3,98,93,36,28.02,27.90,9,2,9,0.29
2014-3-29,58.1,50.1,37.8,57.5,48.1,36.0,98,93,72,27.96,27.70,8,2,8,0.58
2014-3-30,66.0,47.5,34.5,36.9,30.7,24.3,96,58,24,28.05,27.93,7,2,7,0.00
2014-3-31,79.0,57.3,39.9,34.2,6.5,-20.0,50,25,2,28.08,27.96,4,1,4,0.00
2014-4-1,84.7,68.2,57.2,40.3,0.3,-20.0,37,10,2,28.05,27.96,7,1,7,0.00
2014-4-2,83.8,68.7,57.6,50.7,36.0,-14.6,60,35,2,28.02,27.93,7,1,7,0.00
2014-4-3,81.5,68.6,61.2,58.5,54.7,50.3,83,63,40,27.99,27.85,9,2,9,0.00
2014-4-4,66.6,60.2,50.4,60.2,54.9,40.0,96,83,63,27.88,27.70,9,2,9,0.16
2014-4-5,65.3,50.1,36.3,40.6,33.6,28.7,87,57,31,27.99,27.88,6,1,6,0.00
2014-4-6,64.2,51.8,43.3,46.3,34.0,26.4,93,52,37,27.93,27.82,6,1,6,0.38
2014-4-7,57.0,50.6,46.9,56.5,49.2,42.0,98,95,80,27.85,27.52,10,2,10,1.74
2014-4-8,66.4,51.3,39.2,42.4,38.0,33.6,92,64,36,27.76,27.64,7,1,7,0.00
2014-4-9,70.7,53.9,42.6,42.9,35.2,13.5,91,55,17,28.02,27.76,6,1,6,0.00
2014-4-10,77.2,60.4,46.2,39.4,30.6,10.6,49,34,10,28.11,28.02,8,2,8,0.00
2014-4-11,79.2,63.5,52.5,50.9,40.1,32.2,85,43,31,28.11,27.99,10,2,10,0.12
2014-4-12,82.8,64.8,52.9,52.8,49.6,43.3,94,62,32,28.14,27.96,6,1,6,0.00
2014-4-13,80.4,69.6,61.5,51.2,47.6,43.2,59,46,34,28.02,27.85,9,2,9,0.00
2014-4-14,65.8,60.7,56.5,59.2,55.1,49.1,97,83,56,27.90,27.73,10,1,10,0.38
2014-4-15,58.8,42.1,32.2,57.7,33.8,17.4,97,75,48,28.02,27.64,10,2,10,0.16
2014-4-16,64.4,44.5,28.9,29.3,21.5,15.5,65,43,19,28.14,28.02,9,2,9,0.00
2014-4-17,68.5,53.1,39.7,37.4,29.7,22.0,51,41,32,28.26,28.14,8,2,8,0.00
2014-4-18,61.2,54.7,50.7,37.9,33.5,29.1,49,44,40,28.20,28.05,6,1,6,0.00
2014-4-19,70.3,58.7,52.2,40.6,36.4,34.1,52,44,34,28.11,27.99,8,1,8,0.00
2014-4-20,81.9,63.9,49.6,46.2,39.2,33.0,65,43,22,28.14,28.02,7,1,7,0.00
2014-4-21,82.4,66.4,53.4,47.4,39.4,30.5,50,38,29,28.05,27.88,6,1,6,0.00
2014-4-22,73.8,63.5,58.5,61.4,53.3,43.7,90,70,50,27.90,27.79,5,0,5,0.05
2014-4-23,80.6,61.3,46.9,47.4,22.0,-20.0,66,34,2,27.93,27.82,7,1,7,0.00
2014-4-24,82.9,64.5,49.3,45.2,33.3,22.7,47,32,11,27.93,27.79,8,1,8,0.00
2014-4-25,77.9,64.7,53.1,59.6,50.3,43.7,95,62,37,27.93,27.70,8,2,8,0.04
2014-4-26,84.7,66.8,52.3,44.5,37.5,-13.6,69,38,2,27.96,27.88,6,1,6,0.00
2014-4-27,85.5,68.0,59.9,60.3,51.4,37.0,96,59,35,27.93,27.79,8,1,8,0.74
2014-4-28,79.5,66.8,59.7,66.5,61.6,58.3,97,85,53,27.85,27.61,8,1,8,0.96
2014-4-29,80.4,68.2,62.2,65.8,61.4,53.6,98,81,44,27.76,27.58,10,1,10,0.37
2014-4-30,69.1,60.9,53.4,61.1,57.2,46.7,98,88,64,27.88,27.70,7,1,7,0.91
2014-5-1,70.2,55.1,42.8,47.1,38.5,31.7,91,57,32,27.90,27.85,6,1,6,0.00
2014-5-2,71.4,56.9,45.7,40.7,35.9,32.9,68,47,32,27.90,27.82,6,1,6,0.00
2014-5-3,80.6,61.5,46.2,43.6,37.1,31.5,58,42,23,27.99,27.88,7,1,7,0.00
2014-5-4,88.7,70.6,57.2,50.8,42.1,37.1,52,38,19,28.02,27.90,5,1,5,0.00
2014-5-5,89.1,73.2,61.7,53.3,48.4,43.8,59,43,29,27.96,27.85,7,1,7,0.00
2014-5-6,88.7,72.5,59.7,54.4,47.9,41.3,65,44,21,27.93,27.85,4,0,4,0.00
2014-5-7,89.8,71.6,59.2,56.5,50.3,44.6,72,49,29,28.02,27.90,4,0,4,0.00
2014-5-8,87.8,73.0,61.3,57.9,52.8,47.7,78,52,30,28.14,28.02,6,0,6,0.00
2014-5-9,72.3,67.0,61.0,65.6,60.0,53.3,95,79,58,28.05,27.96,5,0,5,0.04
2014-5-10,83.5,67.0,60.8,66.5,60.8,57.3,96,83,46,28.02,27.90,4,0,4,0.00
2014-5-11,82.0,68.2,60.1,66.5,62.3,59.2,97,83,53,28.11,27.99,4,0,4,0.00
2014-5-12,88.9,73.9,64.0,67.6,60.9,53.2,96,68,35,28.11,28.02,6,0,6,0.00
2014-5-13,87.6,73.1,64.8,69.4,61.6,56.9,92,69,40,28.08,27.99,4,0,4,0.00
2014-5-14,77.9,68.3,63.1,66.7,62.6,59.6,97,83,64,28.05,27.85,6,0,6,0.59
2014-5-15,63.5,54.5,46.0,62.6,49.2,40.5,98,83,51,27.99,27.79,6,0,6,0.12
2014-5-16,65.7,51.8,42.8,49.7,38.7,30.1,90,64,33,27.99,27.90,5,1,6,0.04
2014-5-17,55.0,49.7,45.3,51.7,43.2,31.8,96,79,55,28.08,27.99,3,0,3,0.25
2014-5-18,64.4,53.5,49.5,56.5,51.0,48.5,98,91,68,28.11,28.05,4,0,4,0.25
2014-5-19,76.6,59.8,50.9,55.3,51.9,47.0,98,78,39,28.17,28.08,4,0,4,0.00
2014-5-20,83.1,68.1,56.7,60.6,53.3,46.9,93,63,35,28.14,28.02,5,0,5,0.00
2014-5-21,86.7,71.9,61.9,63.6,55.7,48.1,80,58,36,28.08,27.99,6,0,6,0.00
2014-5-22,88.2,73.7,62.6,65.4,61.6,57.2,87,68,41,28.08,27.96,5,0,5,0.00
2014-5-23,90.0,75.7,67.5,67.2,62.0,54.3,92,66,36,28.05,27.96,4,0,4,0.00
2014-5-24,83.8,70.5,61.3,61.6,56.4,49.8,83,63,41,28.08,27.99,5,0,5,0.00
2014-5-25,87.3,71.5,62.6,63.9,59.0,54.2,82,66,43,28.08,28.02,7,0,7,0.00
2014-5-26,89.6,72.0,62.1,65.6,61.2,57.2,92,71,39,28.14,28.02,4,0,4,0.00
2014-5-27,86.2,72.9,64.9,68.9,63.3,57.8,94,74,45,28.08,27.96,3,0,3,0.00
2014-5-28,88.9,73.2,64.4,68.4,62.8,59.0,95,73,42,28.02,27.93,4,0,4,0.00
2014-5-29,86.9,72.9,62.6,66.8,62.8,58.3,93,73,43,28.02,27.93,4,0,4,0.00
2014-5-31,91.6,78.9,68.2,66.4,62.9,56.8,91,62,38,28.05,27.96,5,0,5,0.00
2014-6-1,80.4,70.6,65.3,66.0,62.7,57.7,93,77,51,28.14,28.05,4,0,4,0.00
2014-6-2,82.8,68.9,62.1,61.8,56.7,50.6,90,67,41,28.17,28.02,4,0,4,0.00
2014-6-3,83.5,70.8,62.2,69.7,63.5,55.3,93,78,58,28.08,27.96,3,0,3,0.00
2014-6-4,87.6,74.3,65.8,71.8,66.8,63.3,96,79,47,27.96,27.82,4,0,4,0.00
2014-6-5,83.8,71.5,63.9,69.7,65.5,61.1,96,82,52,27.88,27.73,5,1,5,0.17
2014-6-6,86.5,71.0,61.9,69.9,65.3,60.7,97,84,48,27.90,27.82,3,0,3,0.00
2014-6-7,88.7,73.9,64.0,69.2,65.6,62.3,96,77,45,27.96,27.85,4,0,4,0.04
2014-6-8,83.1,69.6,62.2,69.5,63.6,60.2,97,83,52,27.93,27.79,4,0,4,0.21
2014-6-9,77.9,67.0,60.1,68.3,61.9,56.5,94,84,68,27.93,27.82,6,0,6,0.24
2014-6-10,79.3,66.1,61.9,72.9,64.3,60.3,98,94,77,27.90,27.82,5,0,5,0.83
2014-6-11,80.6,66.9,63.1,68.6,63.3,59.8,98,89,58,27.85,27.76,6,0,6,0.21
2014-6-12,83.1,69.5,61.7,67.4,63.6,60.3,97,83,51,27.88,27.79,5,0,5,0.05
2014-6-13,80.1,67.6,63.7,70.6,64.8,61.9,97,91,62,27.93,27.82,4,0,4,0.41
2014-6-14,83.8,70.9,61.2,65.6,61.1,58.2,95,73,47,27.99,27.90,7,1,7,0.00
2014-6-15,89.4,74.7,64.2,68.4,61.1,54.5,80,64,43,28.08,27.96,3,0,3,0.00
2014-6-16,92.1,77.2,68.4,68.9,62.7,58.2,84,63,37,28.17,28.05,3,0,3,0.00
2014-6-17,93.9,78.4,67.8,70.4,63.1,58.3,83,62,36,28.14,28.02,4,0,4,0.00
2014-6-18,94.3,78.3,70.3,71.4,66.5,61.8,89,69,41,28.11,28.02,4,0,4,0.00
2014-6-19,90.1,75.2,68.7,74.8,67.7,62.8,95,79,49,28.11,28.02,4,0,4,0.00
2014-6-20,93.6,77.9,68.0,73.4,66.8,61.1,94,72,42,28.05,27.93,4,0,4,0.00
2014-6-21,92.8,75.6,66.2,72.7,65.6,60.7,94,73,39,27.96,27.85,7,0,7,0.16
2014-6-22,92.5,75.5,64.0,71.1,66.4,62.0,94,75,40,27.93,27.82,4,0,4,0.00
2014-6-23,92.3,76.2,65.8,71.4,65.3,60.5,94,72,39,27.99,27.88,4,0,4,0.09
2014-6-24,80.8,69.6,65.8,74.1,67.3,64.1,97,92,76,27.99,27.88,4,0,4,0.33
2014-6-25,89.8,74.7,67.3,71.6,65.8,59.5,97,77,40,28.02,27.90,3,0,3,0.04
2014-6-26,84.4,73.5,66.7,69.2,65.0,61.3,90,76,49,28.02,27.90,4,0,4,0.00
2014-6-27,91.8,75.8,68.4,71.4,66.3,60.4,93,75,39,28.05,27.93,4,0,4,0.00
2014-6-28,88.2,72.7,66.6,71.1,66.9,63.5,96,83,47,28.14,28.02,3,0,3,0.13
2014-6-29,86.9,72.3,66.0,72.0,67.9,64.2,96,87,57,28.14,28.02,4,0,4,0.28
2014-6-30,80.8,70.7,65.1,76.5,68.6,64.2,97,93,80,28.05,27.90,4,0,4,1.25
2014-7-1,91.0,77.6,68.5,75.0,70.4,67.5,97,81,52,27.96,27.85,3,0,3,0.00
2014-7-2,93.6,78.3,66.9,69.3,66.3,63.3,94,70,40,27.96,27.88,3,0,3,0.00
2014-7-3,86.7,72.9,62.6,65.0,58.1,50.9,92,64,35,28.02,27.90,8,0,8,0.00
2014-7-4,84.0,69.3,57.7,58.6,54.1,47.7,93,63,35,28.11,28.02,10,1,10,0.00
2014-7-5,88.5,75.1,65.8,60.3,56.5,53.8,74,54,38,28.11,28.05,3,0,3,0.00
2014-7-6,88.7,72.8,61.2,65.8,58.6,53.0,81,63,39,28.08,27.96,4,0,4,0.00
2014-7-7,91.4,76.3,66.4,68.5,60.8,54.7,82,62,31,28.02,27.90,5,0,5,0.00
2014-7-8,85.8,73.0,68.0,70.6,66.9,62.5,95,82,58,27.99,27.90,5,0,5,0.50
2014-7-9,82.0,71.4,66.2,70.4,67.0,64.7,96,87,65,27.99,27.90,3,0,3,0.04
2014-7-10,89.1,73.7,66.4,72.4,66.8,62.5,97,81,47,28.05,27.96,5,0,5,0.00
2014-7-11,90.9,76.7,67.6,66.3,61.0,56.7,77,60,39,28.14,28.02,6,0,6,0.00
2014-7-12,93.0,76.8,66.9,71.1,65.9,57.1,92,71,42,28.14,28.05,5,0,5,0.00
2014-7-13,90.7,77.1,69.1,73.2,67.7,63.8,90,75,46,28.11,27.96,4,0,4,0.00
2014-7-14,92.7,77.7,69.1,74.6,69.0,64.2,96,77,42,27.99,27.85,4,0,4,0.21
2014-7-15,82.8,70.9,62.4,71.9,63.6,53.5,95,79,52,27.90,27.79,4,0,4,0.08
2014-7-16,84.6,67.7,55.6,54.2,51.0,47.5,84,58,33,27.96,27.85,6,0,6,0.00
2014-7-17,81.7,67.7,57.0,57.2,51.6,47.5,72,58,39,27.99,27.90,7,0,7,0.00
2014-7-18,68.4,64.5,61.0,65.3,60.1,53.2,97,87,61,28.08,27.99,4,0,4,0.87
2014-7-19,69.3,66.2,62.2,68.4,65.4,61.4,98,97,97,27.99,27.93,4,0,4,1.08
2014-7-20,81.0,70.3,66.0,72.7,67.5,65.2,98,92,69,27.99,27.93,2,0,3,0.00
2014-7-21,81.1,71.8,68.4,72.6,69.4,67.2,97,92,69,28.05,27.93,7,0,7,0.58
2014-7-22,90.5,74.8,66.7,72.8,68.0,64.5,97,82,45,28.08,27.99,4,0,4,0.00
2014-7-23,87.6,73.4,67.5,76.0,69.4,65.1,96,88,63,28.05,27.90,4,0,4,0.50
2014-7-24,87.1,73.0,65.8,72.6,67.6,63.3,97,85,55,27.96,27.85,4,0,4,0.00
2014-7-25,88.0,71.9,60.6,67.4,60.4,55.4,96,71,39,28.02,27.90,6,0,6,0.00
2014-7-26,90.1,75.7,65.8,66.6,61.9,57.7,81,64,40,27.99,27.90,4,0,4,0.00
2014-7-27,89.6,78.2,69.6,74.9,70.1,64.4,93,77,54,27.99,27.82,7,1,7,0.00
2014-7-28,85.1,73.5,64.4,72.5,62.7,54.6,96,72,41,27.93,27.85,5,1,5,1.00
2014-7-29,80.2,67.2,58.5,60.4,54.0,46.2,92,66,36,27.99,27.90,7,1,7,0.00
2014-7-30,80.6,66.5,55.8,55.9,52.2,49.7,81,62,38,28.02,27.96,4,1,7,0.00
2014-7-31,64.4,63.7,63.1,56.9,56.1,54.8,79,76,71,28.02,27.99,4,1,4,0.00
2014-8-2,69.6,66.7,62.6,68.1,64.9,60.2,96,94,88,28.05,27.96,3,0,3,1.29
2014-8-3,85.1,72.1,63.9,73.9,65.1,59.9,98,80,56,28.05,27.96,6,0,6,0.00
2014-8-4,88.0,73.8,63.3,63.7,57.1,47.5,83,59,33,28.05,27.96,6,1,6,0.00
2014-8-5,88.0,75.3,66.7,65.3,56.1,47.4,74,53,39,28.05,27.96,3,0,3,0.00
2014-8-6,89.8,77.0,67.6,69.6,62.8,52.6,86,63,46,27.99,27.93,4,0,4,0.00
2014-8-7,90.9,76.8,69.4,72.7,67.3,61.8,88,74,53,27.96,27.90,4,0,4,0.00
2014-8-8,85.3,72.0,66.9,72.9,68.1,64.9,96,88,65,27.99,27.90,4,0,4,0.49
2014-8-9,83.5,72.4,66.6,74.3,69.6,65.7,97,91,72,27.99,27.88,3,0,3,0.09
2014-8-10,84.4,74.5,70.0,75.1,70.6,67.9,96,88,67,27.96,27.88,4,0,4,0.00
2014-8-11,83.3,72.7,68.7,75.1,70.1,67.1,96,92,75,27.96,27.82,4,0,4,0.29
2014-8-12,87.1,73.4,65.5,72.2,67.3,58.5,97,83,51,27.90,27.79,4,0,4,0.00
2014-8-13,80.6,67.4,57.2,60.2,56.8,54.2,91,71,47,27.99,27.90,6,1,6,0.00
2014-8-14,82.8,68.3,57.7,60.0,56.6,53.0,86,68,43,28.02,27.90,7,1,7,0.00
2014-8-15,85.1,72.3,64.6,62.4,58.5,55.6,77,63,40,27.99,27.90,5,0,5,0.00
2014-8-16,87.3,73.9,65.5,65.0,60.0,56.5,81,64,40,28.02,27.93,5,0,5,0.00
2014-8-17,89.2,72.0,66.7,71.6,64.7,59.2,95,79,46,27.96,27.88,6,0,6,0.37
2014-8-18,82.9,70.3,65.7,75.3,67.8,64.8,97,92,73,27.93,27.82,4,0,4,1.00
2014-8-19,86.2,73.6,66.6,72.7,68.3,65.4,97,85,60,27.88,27.79,4,0,4,0.00
2014-8-20,89.6,74.7,67.6,77.8,69.9,64.2,96,86,62,28.05,27.88,5,0,5,0.00
2014-8-21,91.8,77.0,66.0,73.8,67.8,62.7,96,75,47,28.08,28.02,4,0,4,0.00
2014-8-22,90.3,78.5,70.3,74.3,69.7,65.9,94,77,48,28.05,27.93,3,0,3,0.00
2014-8-23,89.2,75.9,69.6,76.3,70.9,66.3,94,85,61,27.99,27.88,6,0,6,0.25
2014-8-24,86.2,74.8,69.3,76.6,70.9,67.8,96,88,66,27.96,27.85,4,0,4,0.00
2014-8-25,82.9,72.7,66.6,69.7,67.0,64.2,94,83,62,28.02,27.93,4,0,4,0.00
2014-8-26,86.7,72.6,62.6,67.6,62.8,57.9,90,73,44,28.11,27.99,4,0,4,0.00
2014-8-27,87.6,73.9,65.1,70.0,64.3,60.0,92,73,52,28.05,27.96,4,0,4,0.00
2014-8-28,89.6,80.1,69.1,66.4,62.8,49.4,75,57,40,27.99,27.90,5,0,5,0.00
2014-8-29,91.6,77.5,69.3,66.3,59.7,53.0,79,56,37,28.02,27.96,4,0,4,0.00
2014-8-30,85.3,74.4,67.3,71.6,64.1,55.4,95,71,57,28.08,27.96,7,0,7,0.33
2014-8-31,71.6,70.2,69.6,69.8,68.8,68.2,96,95,94,28.05,28.02,0,0,0,0.00
2014-9-1,88.2,76.3,68.2,73.6,69.1,66.7,96,80,56,28.05,27.96,5,0,5,0.00
2014-9-2,88.3,78.0,69.3,73.7,68.7,64.6,94,75,55,28.05,27.90,3,1,4,0.00
2014-9-3,86.0,72.1,66.4,75.5,68.9,65.1,97,90,65,28.02,27.93,4,0,5,0.53
2014-9-4,80.6,72.4,68.4,73.3,69.5,67.2,97,91,74,28.08,27.99,6,0,6,0.05
2014-9-5,84.6,71.2,67.3,74.5,68.8,66.1,97,93,65,28.14,27.99,4,0,4,1.62
2014-9-6,86.7,72.9,67.8,74.9,69.1,66.7,97,88,63,28.05,27.90,3,0,4,0.04
2014-9-7,84.2,72.6,67.1,71.6,67.7,65.5,97,85,62,27.99,27.90,6,1,6,0.00
2014-9-8,81.0,72.2,66.2,72.0,67.8,65.0,96,87,69,28.02,27.90,4,0,5,0.00
2014-9-9,77.7,70.7,66.0,71.3,67.8,64.7,96,91,78,28.05,27.93,4,0,5,0.25
2014-9-10,79.5,72.1,67.3,71.2,68.4,66.1,96,89,73,28.02,27.88,4,0,6,0.00
2014-9-11,82.9,74.4,70.0,74.3,70.1,67.9,95,87,70,27.99,27.90,4,0,4,0.00
2014-9-12,79.5,70.9,67.1,73.6,68.9,65.9,97,94,79,28.02,27.93,4,0,4,1.37
2014-9-13,72.5,65.2,58.5,66.6,62.1,56.5,97,90,71,28.14,27.99,5,1,5,0.00
2014-9-14,75.0,65.3,57.0,67.5,61.6,55.8,96,88,71,28.14,28.05,6,1,9,0.00
2014-9-15,76.3,68.5,63.7,70.0,66.2,62.8,97,93,80,28.11,28.02,3,0,3,0.33
2014-9-16,77.9,69.9,64.2,69.1,65.9,62.0,97,88,69,28.05,27.90,3,0,4,0.00
2014-9-17,73.0,64.1,57.7,62.2,56.7,52.1,96,78,52,27.93,27.85,5,0,5,0.00
2014-9-18,75.6,65.9,57.9,56.7,54.6,51.4,88,68,47,27.93,27.85,6,0,6,0.00
2014-9-19,79.0,67.7,59.2,66.2,60.0,54.0,87,77,63,28.02,27.93,6,1,6,0.00
2014-9-20,77.5,68.5,60.6,64.2,61.1,58.6,94,78,57,28.08,27.93,4,0,4,0.00
2014-10-4,57.6,50.1,42.8,34.5,31.1,28.6,63,48,39,27.88,27.76,5,1,5,0.00
2014-10-5,64.2,50.0,38.7,41.9,35.1,28.0,72,57,42,27.88,27.76,3,0,3,0.00
2014-10-6,65.1,57.0,50.7,60.5,51.1,40.0,96,81,56,27.88,27.79,4,0,4,0.21
2014-10-7,70.5,61.6,56.5,65.0,59.6,54.9,98,93,76,27.93,27.85,5,0,5,0.20
2014-10-8,74.5,66.0,59.7,65.4,61.5,57.6,97,86,67,28.02,27.90,4,0,4,0.59
2014-10-9,77.5,67.3,62.1,67.8,63.2,58.4,96,87,66,28.05,27.96,2,0,3,0.04
2014-10-10,75.6,67.1,63.1,67.4,64.5,62.3,97,92,68,27.99,27.90,4,0,4,0.33
2014-10-11,72.0,66.9,62.6,66.8,64.2,61.2,97,91,76,27.96,27.88,4,0,4,0.08
2014-10-12,71.1,64.3,61.0,68.9,63.3,60.1,98,97,91,27.99,27.90,4,0,4,2.54
2014-10-13,68.0,63.5,59.9,66.8,62.6,59.3,98,97,95,27.99,27.79,10,1,10,0.46
2014-10-14,65.8,60.5,53.8,64.8,58.2,51.0,98,92,73,27.79,27.64,9,1,9,3.52
2014-10-15,57.4,53.1,50.2,53.5,50.5,48.5,97,91,78,27.76,27.70,4,0,4,0.00
2014-10-16,55.2,50.5,47.1,51.9,49.1,46.3,98,95,85,27.85,27.70,4,0,4,0.13
2014-10-17,69.4,57.3,47.1,57.8,52.5,46.1,98,85,63,27.85,27.76,5,0,5,0.00
2014-10-18,63.5,55.5,46.8,57.3,48.0,42.0,95,77,49,27.96,27.79,6,1,6,0.00
2014-10-19,62.2,50.6,43.0,46.2,42.6,40.2,91,75,52,28.05,27.93,8,1,8,0.00
2014-10-20,63.7,53.5,45.5,50.2,46.0,41.5,88,77,49,27.96,27.88,4,0,4,0.00
2014-10-21,63.9,55.8,47.8,52.3,45.8,41.6,94,71,46,27.93,27.88,6,1,6,0.00
2014-10-22,58.8,48.6,41.7,42.1,38.7,35.9,86,70,47,28.05,27.93,11,1,11,0.00
2014-10-23,62.8,49.2,39.9,44.2,39.8,36.4,88,72,47,28.02,27.93,9,1,9,0.00
2014-10-24,65.7,54.1,47.1,44.9,39.1,34.7,78,59,33,27.96,27.90,6,1,6,0.00
2014-10-25,70.2,59.0,50.4,56.0,47.5,35.9,89,67,46,27.96,27.90,4,0,4,0.00
2014-10-26,73.8,63.9,56.8,63.8,56.0,49.0,97,78,44,27.93,27.88,3,0,4,0.00
2014-10-27,76.5,66.9,61.3,65.1,58.5,50.0,96,76,48,27.99,27.90,4,0,4,0.00
2014-10-28,70.7,64.7,58.8,61.0,58.3,53.7,94,80,65,28.02,27.93,4,0,4,0.00
2014-10-29,62.6,54.7,46.9,59.8,46.9,34.5,97,77,46,27.96,27.90,6,1,6,0.16
2014-10-30,59.4,49.7,42.3,36.9,34.8,33.1,70,58,41,27.99,27.88,6,1,6,0.00
2014-10-31,53.8,45.0,33.4,41.9,35.9,26.6,88,71,52,27.90,27.76,7,1,7,0.00
2014-11-1,36.7,33.2,31.5,29.8,28.8,27.0,92,84,73,28.11,27.85,11,2,11,0.04
2014-11-2,50.7,37.4,27.5,28.4,24.0,19.9,87,61,40,28.23,28.08,6,1,6,0.04
2014-11-3,60.4,48.3,38.1,33.2,25.9,19.4,48,42,35,28.26,28.17,5,1,5,0.04
2014-11-4,64.4,55.1,47.8,36.7,30.8,26.8,46,40,34,28.20,28.08,6,0,6,0.04
2014-11-5,62.1,56.7,52.9,55.5,48.0,29.1,96,75,39,28.11,27.99,4,0,4,0.05
2014-11-6,62.1,53.8,40.3,56.1,43.5,28.8,98,71,37,27.99,27.82,9,2,9,0.62
2014-11-7,51.4,42.3,35.8,33.1,30.6,28.2,75,64,46,27.99,27.90,8,1,8,0.00
2014-11-8,58.8,47.0,36.9,35.6,31.3,-5.3,80,57,17,27.90,27.79,5,0,5,0.00
2014-11-9,59.5,47.6,38.3,42.7,36.8,31.2,94,68,38,27.90,27.82,6,0,6,0.00
2014-11-10,61.9,52.3,42.4,41.7,36.2,31.9,76,55,41,27.93,27.85,3,1,3,0.00
2014-11-11,68.4,57.7,48.0,54.1,45.2,37.5,86,64,49,27.90,27.82,3,1,3,0.00
2014-11-12,58.5,40.8,32.5,54.8,37.8,30.5,95,89,82,28.02,27.88,1,1,1,0.00
2014-11-13,32.7,30.5,26.8,30.5,25.1,14.0,92,80,58,28.05,27.96,1,1,1,0.00
2014-11-14,34.2,26.5,22.8,13.0,9.7,8.5,54,49,41,28.11,28.05,0,0,0,0.00
2014-11-15,42.4,32.1,21.9,20.8,14.7,8.3,57,49,41,28.17,28.05,6,1,6,0.00
2014-11-16,45.9,38.3,34.5,45.2,29.8,17.9,98,74,45,28.05,27.76,6,2,6,0.74
2014-11-17,48.6,35.0,20.3,47.8,30.8,10.6,98,85,58,27.96,27.55,7,2,7,1.25
2014-11-18,32.2,22.7,18.0,13.5,8.1,2.4,75,54,36,28.17,27.96,2,2,2,0.00
2014-11-19,44.8,31.7,17.4,21.3,13.4,3.2,56,47,38,28.14,27.99,2,2,2,0.00
2014-11-20,54.9,42.6,34.5,29.8,21.7,17.3,54,43,34,28.11,27.99,4,2,4,0.00
2014-11-21,54.3,41.5,31.6,26.5,19.2,12.9,49,41,32,28.26,28.11,4,1,4,0.00
2014-11-22,59.7,47.7,37.4,32.0,24.3,11.4,52,40,31,28.26,28.02,7,2,7,0.00
2014-11-23,58.1,50.9,45.5,56.5,46.6,24.5,98,88,38,28.02,27.46,9,2,9,1.08
2014-11-24,68.0,57.1,43.9,56.1,45.5,28.2,93,67,43,27.90,27.55,8,2,8,0.00
2014-11-25,60.6,46.6,37.0,33.4,26.7,23.1,59,47,29,27.99,27.90,6,1,6,0.00
2014-11-26,53.8,41.9,31.5,35.6,25.1,19.6,90,53,28,27.96,27.88,6,1,6,0.08
2014-11-27,38.5,33.2,26.4,35.2,25.4,16.4,90,73,61,28.20,27.88,6,2,6,0.00
2014-11-28,45.5,31.9,20.5,21.4,16.0,12.9,79,54,35,28.23,28.05,4,1,4,0.04
2014-11-29,52.0,43.4,35.2,41.1,24.8,14.2,70,48,40,28.08,27.96,6,2,6,0.00
2014-11-30,65.1,55.8,49.6,52.5,48.3,38.0,93,77,55,28.14,27.99,8,2,8,0.00
2014-12-1,63.7,57.6,54.7,57.9,54.2,49.4,98,89,74,28.23,28.14,4,1,4,0.33
2014-12-2,57.6,55.5,54.5,56.7,54.7,53.4,98,97,96,28.17,28.08,0,0,0,0.21
2014-12-3,63.5,54.2,46.8,54.1,49.8,44.3,98,86,60,28.14,28.08,0,0,0,0.00
2014-12-4,66.9,54.5,47.3,53.1,48.7,44.9,95,82,54,28.17,28.08,0,0,0,0.00
2014-12-5,55.0,53.4,51.1,54.5,52.7,50.5,98,97,95,28.20,28.05,0,0,0,0.21
2014-12-6,59.0,49.4,39.6,58.4,48.5,38.1,98,97,92,28.20,27.96,0,0,0,0.54
2014-12-7,52.5,40.8,34.9,38.3,31.8,27.8,96,72,46,28.23,28.11,0,0,0,0.00
2014-12-8,50.9,40.7,36.7,33.6,27.9,20.5,81,61,46,28.14,28.02,0,0,0,0.00
2014-12-9,46.6,37.9,31.8,37.4,31.1,23.0,88,77,58,28.02,27.90,0,0,0,0.00
2014-12-10,41.0,34.4,28.6,30.7,26.6,21.7,88,74,56,28.05,27.93,0,0,0,0.00
2014-12-11,49.3,34.1,26.4,26.3,21.9,17.5,82,63,39,28.08,27.93,0,0,0,0.00
2014-12-12,58.1,39.1,27.9,27.0,16.2,-10.8,74,47,6,28.17,28.08,0,0,0,0.00
2014-12-13,48.9,36.9,31.8,32.6,24.6,16.4,89,62,47,28.14,28.02,0,0,0,0.00
2014-12-14,52.0,36.2,30.4,34.1,30.5,28.0,95,82,48,28.05,27.90,0,0,0,0.00
2014-12-15,59.9,41.4,29.5,46.4,34.9,28.0,96,81,44,27.93,27.82,0,0,0,0.12
2014-12-16,51.4,45.1,38.7,50.7,40.6,34.2,98,84,67,28.05,27.76,0,0,0,0.33
2014-12-17,49.3,37.9,30.7,36.3,32.9,27.9,96,83,53,28.08,28.02,0,0,0,0.00
2014-12-18,48.9,38.4,30.7,33.2,29.8,24.5,90,72,50,28.05,27.96,0,0,0,0.00
2014-12-19,47.1,37.3,29.8,29.7,25.8,23.1,85,64,49,28.05,27.99,0,0,0,0.00
2014-12-20,54.3,40.1,35.1,34.5,29.1,24.4,79,65,47,28.08,27.96,0,0,0,0.00
2014-12-21,48.7,40.5,33.3,40.4,33.8,28.4,88,77,64,28.05,27.93,0,0,0,0.00
2014-12-22,44.8,43.4,41.9,44.1,42.2,40.3,98,96,88,27.93,27.70,0,0,0,0.00
2014-12-23,50.5,46.0,43.0,50.0,45.4,42.5,98,98,98,27.79,27.64,0,0,0,0.00
2014-12-24,55.0,47.5,37.9,54.5,46.9,36.9,98,98,96,27.79,27.49,0,0,0,0.00
2014-12-25,52.0,39.4,35.2,36.9,32.5,28.9,96,78,50,28.08,27.76,0,0,0,0.00
2014-12-26,51.3,41.8,34.3,36.8,33.2,30.8,88,73,52,28.20,28.08,0,0,0,0.00
2014-12-27,52.9,47.1,43.0,45.2,36.4,32.0,91,66,56,28.17,28.02,0,0,0,0.00
2014-12-28,57.2,51.3,47.5,54.8,50.2,45.5,98,96,88,28.02,27.90,0,0,0,0.00
2014-12-29,50.4,46.0,39.4,49.4,45.2,38.9,98,97,94,28.02,27.90,0,0,0,0.00
2014-12-30,43.2,35.2,28.4,38.9,31.8,23.2,98,88,59,28.26,28.02,0,0,0,0.00
2014-12-31,48.2,33.6,26.1,26.4,19.8,13.6,82,58,38,28.29,28.20,0,0,0,0.00
2015-1-1,42.1,35.0,27.0,24.6,18.2,11.9,59,50,44,28.23,28.08,0,0,0,0.00
2015-1-2,44.8,40.5,37.4,43.7,35.9,24.4,98,84,59,28.20,28.08,0,0,0,0.00